Temp
-8 -8 -7 -7 -8 -8 -8 -8 -8 -8 -8 -8 -8 -9 -9 -9 -9 -10 -10 -10 -10 -11 -12 -12 -13 -13 -13 -12 -12 -12 -12 -11 -11
-8 -8 -8 -8 -8 -8 -8 -8 -8 -8 -8 -8 -8 -8 -9 -9 -9 -10 -10 -10 -11 -12 -12 -12 -12 -13 -13 -14 -14 -14 -13 -12 -12
-9 -8 -8 -8 -8 -8 -8 -8 -8 -8 -9 -9 -8 -9 -9 -9 -10 -10 -10 -10 -11 -12 -12 -12 -12 -12 -13 -13 -14 -14 -14 -13 -12
-9 -9 -8 -8 -8 -8 -8 -8 -8 -9 -9 -9 -9 -9 -9 -9 -10 -10 -10 -10 -11 -12 -12 -12 -11 -12 -12 -13 -14 -14 -14 -13 -13
-9 -9 -9 -8 -8 -8 -8 -8 -8 -9 -9 -9 -9 -9 -9 -9 -10 -10 -10 -10 -11 -11 -11 -11 -11 -11 -12 -12 -13 -13 -13 -13 -13
-9 -9 -9 -9 -8 -8 -8 -8 -8 -9 -9 -9 -9 -9 -9 -10 -10 -10 -10 -10 -10 -10 -11 -11 -11 -11 -11 -12 -12 -12 -13 -13 -12
-10 -9 -9 -9 -9 -8 -8 -8 -8 -9 -9 -9 -10 -10 -10 -10 -10 -10 -10 -10 -10 -10 -11 -11 -11 -11 -11 -11 -12 -12 -12 -12 -12
-10 -10 -9 -9 -9 -9 -9 -9 -9 -9 -9 -9 -9 -10 -10 -10 -10 -10 -10 -10 -10 -10 -11 -11 -11 -11 -11 -11 -11 -12 -12 -12 -12
-10 -10 -10 -9 -9 -9 -9 -9 -9 -9 -9 -10 -10 -10 -10 -10 -10 -10 -10 -10 -10 -10 -10 -11 -11 -11 -11 -11 -11 -11 -12 -12 -12
-10 -10 -10 -10 -9 -9 -9 -9 -9 -9 -10 -10 -10 -10 -10 -11 -11 -11 -11 -11 -10 -10 -10 -10 -11 -11 -11 -11 -11 -11 -11 -11 -12
-10 -10 -10 -10 -10 -9 -10 -10 -10 -10 -10 -10 -10 -11 -11 -11 -11 -11 -11 -11 -11 -11 -11 -11 -11 -11 -11 -11 -11 -11 -11 -11 -12
-11 -10 -10 -10 -10 -10 -10 -10 -10 -10 -10 -10 -11 -11 -11 -11 -11 -12 -11 -12 -11 -11 -11 -11 -11 -11 -11 -11 -11 -11 -11 -12 -12
-11 -11 -10 -10 -10 -10 -10 -10 -11 -11 -11 -11 -11 -11 -11 -11 -12 -12 -12 -12 -12 -12 -12 -12 -12 -11 -11 -11 -11 -11 -11 -12 -12
-11 -11 -11 -11 -11 -11 -11 -11 -11 -11 -11 -11 -11 -11 -11 -11 -12 -12 -12 -12 -12 -12 -12 -12 -12 -12 -12 -11 -11 -11 -11 -12 -12
-11 -11 -11 -11 -11 -11 -11 -11 -11 -11 -11 -11 -11 -12 -12 -12 -12 -12 -12 -12 -12 -12 -12 -12 -12 -12 -12 -12 -12 -12 -12 -12 -12
-11 -11 -11 -11 -11 -11 -11 -11 -11 -11 -11 -12 -12 -12 -12 -12 -12 -12 -12 -13 -13 -13 -13 -12 -12 -12 -12 -12 -12 -12 -12 -12 -12
-11 -11 -11 -11 -12 -12 -12 -11 -12 -11 -12 -12 -12 -12 -12 -12 -12 -12 -12 -13 -13 -13 -13 -13 -13 -13 -13 -12 -12 -12 -12 -13 -12
-12 -12 -12 -12 -12 -12 -12 -12 -12 -12 -12 -12 -12 -12 -12 -12 -12 -12 -13 -13 -13 -13 -13 -13 -13 -13 -13 -13 -13 -13 -13 -13 -13
-12 -12 -12 -12 -12 -12 -12 -12 -12 -12 -12 -12 -12 -12 -13 -13 -13 -13 -13 -13 -13 -13 -13 -13 -13 -13 -13 -13 -14 -14 -13 -13 -13
-12 -13 -13 -12 -13 -13 -13 -13 -13 -13 -13 -13 -13 -13 -13 -13 -13 -13 -13 -13 -13 -13 -13 -14 -14 -14 -14 -14 -13 -14 -14 -14 -13
Height
5879 5877 5877 5876 5875 5873 5872 5871 5869 5867 5865 5861 5858 5854 5851 5847 5843 5840 5838 5836 5833 5830 5828 5825 5823 5820 5817 5815 5816 5818 5820 5821 5822
5878 5877 5876 5875 5873 5872 5870 5869 5867 5865 5862 5859 5856 5852 5848 5843 5839 5837 5835 5832 5830 5828 5827 5824 5821 5817 5814 5810 5809 5810 5813 5815 5817
5877 5876 5875 5873 5872 5870 5869 5867 5865 5862 5859 5856 5853 5849 5844 5839 5836 5834 5832 5830 5828 5827 5825 5822 5819 5815 5812 5808 5805 5806 5807 5809 5812
5876 5875 5873 5872 5870 5869 5867 5865 5863 5861 5858 5854 5851 5847 5842 5838 5835 5832 5831 5829 5827 5825 5823 5820 5817 5813 5809 5807 5804 5803 5804 5806 5808
5874 5873 5871 5870 5868 5866 5865 5863 5860 5858 5855 5852 5848 5844 5840 5836 5833 5831 5829 5828 5826 5823 5821 5818 5815 5812 5808 5806 5804 5802 5803 5804 5806
5871 5871 5869 5867 5866 5863 5862 5860 5857 5855 5852 5849 5845 5842 5838 5834 5832 5830 5828 5826 5824 5821 5819 5816 5814 5811 5808 5805 5803 5802 5802 5803 5804
5869 5868 5867 5865 5863 5861 5859 5857 5855 5852 5849 5846 5843 5839 5836 5832 5829 5828 5827 5825 5823 5820 5818 5816 5813 5810 5807 5804 5802 5801 5801 5801 5802
5867 5865 5864 5862 5860 5858 5856 5854 5852 5849 5846 5844 5841 5837 5833 5830 5827 5825 5825 5823 5821 5819 5817 5814 5811 5809 5807 5804 5802 5800 5799 5799 5800
5864 5862 5861 5858 5856 5854 5853 5850 5848 5846 5843 5841 5838 5834 5831 5828 5825 5823 5822 5821 5819 5817 5815 5812 5810 5808 5806 5805 5803 5801 5800 5800 5800
5860 5858 5857 5854 5852 5850 5849 5847 5844 5842 5840 5838 5835 5832 5829 5825 5823 5820 5819 5818 5817 5815 5813 5811 5809 5807 5805 5804 5803 5802 5801 5800 5799
5856 5854 5853 5850 5848 5846 5845 5843 5841 5839 5837 5834 5832 5829 5826 5823 5821 5818 5816 5815 5814 5812 5811 5809 5807 5805 5803 5802 5802 5800 5799 5798 5797
5852 5850 5849 5847 5844 5842 5841 5839 5837 5835 5833 5831 5828 5826 5823 5821 5818 5816 5814 5812 5810 5809 5807 5806 5804 5803 5801 5799 5799 5798 5796 5796 5795
5847 5846 5844 5842 5840 5838 5837 5836 5834 5832 5829 5827 5824 5822 5820 5817 5815 5812 5810 5809 5807 5806 5804 5803 5801 5800 5798 5797 5795 5794 5792 5791 5790
5842 5841 5840 5838 5836 5834 5833 5832 5830 5828 5825 5823 5821 5818 5816 5813 5811 5809 5807 5804 5803 5802 5801 5800 5798 5796 5795 5793 5792 5790 5788 5787 5785
5836 5835 5834 5833 5831 5829 5828 5827 5825 5823 5821 5819 5816 5814 5812 5809 5807 5805 5802 5800 5798 5797 5795 5795 5793 5792 5790 5788 5786 5785 5783 5781 5779
5829 5829 5828 5827 5826 5824 5823 5821 5820 5818 5816 5814 5812 5809 5807 5804 5802 5800 5798 5795 5793 5792 5790 5788 5787 5785 5784 5782 5780 5779 5777 5775 5773
5822 5822 5822 5821 5820 5818 5816 5815 5814 5812 5810 5808 5806 5804 5802 5799 5797 5794 5792 5789 5787 5785 5783 5782 5780 5778 5777 5775 5774 5772 5771 5769 5767
5815 5815 5814 5814 5813 5811 5810 5808 5807 5805 5804 5802 5800 5797 5795 5792 5790 5787 5785 5783 5780 5778 5776 5774 5772 5771 5769 5767 5766 5764 5762 5760 5759
5807 5807 5806 5806 5805 5804 5802 5801 5800 5798 5796 5794 5792 5790 5787 5785 5782 5779 5776 5774 5772 5769 5767 5765 5763 5761 5760 5758 5756 5754 5752 5750 5749
5798 5798 5798 5797 5796 5795 5794 5793 5791 5790 5788 5786 5784 5782 5779 5776 5773 5771 5768 5765 5762 5760 5757 5755 5753 5751 5749 5747 5745 5743 5742 5739 5737
Wind_Speed
16 17 16 17 18 19 20 21 22 24 28 28 28 29 29 29 26 23 22 25 25 20 18 20 21 21 23 27 31 31 32 31 29
15 16 16 16 17 18 20 20 21 24 26 29 30 29 29 29 24 23 22 16 11 15 18 20 21 23 24 20 24 25 25 27 26
14 15 16 17 18 19 20 21 22 25 28 29 31 31 29 28 21 18 11 13 11 12 16 19 22 22 22 21 16 19 20 20 21
12 14 16 18 19 20 20 21 23 25 27 28 31 31 27 24 17 13 12 12 13 14 16 19 21 21 21 19 14 13 15 17 18
13 13 16 19 20 22 23 23 23 25 27 28 30 29 26 24 15 12 11 13 16 18 18 18 20 21 19 16 14 10 9 13 15
16 13 15 18 21 23 23 24 25 26 27 28 28 28 26 23 14 12 11 13 15 17 16 15 15 17 16 14 13 11 9 9 12
19 15 15 17 20 23 23 23 24 26 27 27 27 28 27 22 16 13 12 10 14 16 15 13 14 16 15 14 10 10 9 9 11
21 17 16 18 20 23 21 22 24 25 25 25 27 29 28 22 19 15 14 13 13 16 18 17 14 14 11 11 9 7 7 8 8
22 21 19 20 21 23 21 22 22 23 21 24 27 28 28 23 21 18 16 15 15 16 18 19 17 12 11 9 7 4 2 2 4
24 24 23 21 23 24 22 21 20 20 21 24 27 27 28 23 20 19 17 18 18 18 19 21 19 13 11 10 8 7 6 6 7
25 26 26 23 24 24 21 19 18 19 22 24 26 26 27 25 21 18 18 18 21 21 21 21 20 13 11 11 11 12 12 12 12
25 28 28 24 23 24 21 18 19 21 23 24 25 26 27 25 22 21 18 17 18 20 20 19 15 11 11 11 12 13 15 16 16
26 28 28 25 23 22 20 20 21 22 23 24 24 26 27 26 23 21 21 20 18 17 16 14 13 13 13 15 14 15 15 16 17
27 28 28 26 22 23 21 22 23 23 24 25 25 26 27 26 23 22 21 21 20 19 18 18 18 18 17 17 16 16 17 18 20
28 29 29 27 23 23 23 23 24 24 26 26 26 26 26 26 24 23 24 23 23 22 22 23 23 23 23 21 21 21 21 21 21
29 29 29 29 24 24 24 24 25 27 27 28 29 27 27 26 26 25 26 27 27 27 27 27 27 27 27 26 25 25 25 24 24
31 31 30 31 28 25 24 25 26 28 31 33 31 30 29 28 29 29 29 30 30 30 31 31 31 30 31 30 29 29 29 28 28
33 32 32 33 32 27 26 27 28 32 32 34 36 34 32 31 32 32 33 33 32 33 33 33 34 35 34 34 33 32 33 33 33
35 34 35 36 35 30 30 30 32 35 35 35 37 38 36 35 36 36 36 36 37 36 36 36 36 36 37 37 38 37 37 37 38
38 37 39 40 38 34 34 35 36 38 38 37 38 40 40 39 38 38 39 39 40 40 40 40 40 40 40 41 42 42 43 43 43
Wind_Direction
23 23 19 15 10 8 7 1 356 355 352 346 341 335 328 324 324 324 317 311 313 329 345 358 345 328 302 272 264 259 258 257 258
22 20 14 7 3 359 358 355 351 349 350 350 345 341 336 332 320 322 319 325 3 356 345 334 332 332 329 320 266 257 255 256 256
19 14 10 5 359 355 354 351 348 345 343 344 343 341 340 336 330 327 328 325 335 333 326 329 325 324 323 322 298 263 254 251 252
3 3 2 359 358 355 355 352 345 343 342 345 344 343 342 339 333 329 329 326 323 319 316 321 324 323 324 328 322 284 260 249 251
348 347 351 353 351 350 353 352 346 341 339 346 343 343 342 339 328 330 328 326 325 319 312 311 317 320 320 322 322 308 276 270 255
347 342 343 345 345 344 346 348 345 341 339 343 343 342 342 340 320 319 323 331 334 338 335 329 330 335 327 315 313 311 299 279 265
349 340 337 340 341 341 341 343 343 341 339 341 345 342 340 338 314 309 313 328 338 345 342 332 330 333 333 331 310 300 292 280 272
344 338 333 336 339 337 338 339 340 340 339 341 343 342 341 336 327 302 302 305 322 335 340 342 331 334 334 340 344 312 284 272 267
333 337 333 334 337 336 335 335 337 340 339 338 339 341 343 339 336 316 300 298 308 320 330 336 335 325 323 332 341 340 321 279 268
327 331 332 333 336 336 334 334 336 337 335 336 335 339 342 338 335 330 308 297 302 308 317 325 330 324 308 303 309 307 300 283 271
320 324 328 329 334 337 332 329 331 331 330 331 333 335 340 336 331 330 327 310 299 302 310 314 319 318 311 296 294 288 289 288 285
313 319 323 326 332 334 329 323 324 326 326 327 331 332 336 333 327 324 320 325 321 311 312 311 308 307 311 305 298 289 283 286 288
306 313 320 322 329 331 323 317 318 321 324 325 327 330 333 332 324 322 318 315 313 316 315 305 299 300 299 298 297 295 292 288 286
300 308 316 317 324 326 320 313 313 317 322 324 324 327 328 327 322 316 315 315 309 307 300 293 289 292 293 290 286 285 287 287 285
295 302 312 314 317 323 319 311 312 316 319 321 321 322 322 321 318 315 311 310 308 301 298 295 286 285 287 284 282 280 281 280 279
291 298 308 311 311 317 316 310 311 314 318 321 319 319 319 316 313 311 309 307 305 303 297 293 291 286 283 281 279 277 275 274 274
288 294 303 308 306 308 310 307 304 310 313 315 316 315 314 313 311 307 306 304 303 301 298 293 289 286 283 280 277 276 275 273 273
286 291 299 305 303 301 300 300 300 307 310 309 311 312 310 309 308 308 305 304 301 299 298 295 292 289 286 281 279 278 277 276 277
284 289 295 300 300 296 293 295 297 301 306 305 304 308 307 306 306 306 305 303 300 297 295 293 291 289 287 284 282 281 280 280 279
283 287 293 297 297 291 291 293 294 298 300 300 300 301 303 304 303 303 303 301 299 297 294 292 290 287 285 284 282 281 280 279 279